sat.trackr.live / text

‹ back to catalog

STARLINK-4624

NORAD 53684 · 2022-105AN

PAYLOAD ACTIVE UNKNOWN

§ Identity

Operator
Country
US
Launch date
2022-08-31
Launch site
AFWTR
Launch vehicle
Mass (kg)
RCS (m²)

Purposes: comms

External: N2YO · Heavens-Above · Gunter

§ Orbital elements

Epoch: 2026-09-20T14:38:08.602656Z

Period
95.64 min
Inclination
97.2851°
Eccentricity
0.0002059
Mean motion
15.05659408 rev/d
Perigee alt
548.1 km
Apogee alt
550.9 km
Semi-major
6,927.6 km
B*
4.0888e-5
RAAN
137.3804°
Arg perigee
80.0270°
Mean anomaly
280.1190°
Rev number
22,253

§ Raw data

STARLINK-46241 53684U 22105AN  26263.60982179  .00000534  00000+0  40888-4 0  99902 53684  97.2851 137.3804 0002059  80.0270 280.1190 15.05659408222537

JSON: /api/v1/satellites/53684 · /tle

For live sub-satellite position, see the globe view (requires WebGL).

§ Visibility from observer

Set your observer location to see the next 7 days of passes ≥ 10°. The values pass through the URL so the page stays shareable.

No JS? Fill the form by hand. The geolocation button needs JavaScript.